Location: Clanezzo
(45.7500°N, 9.6000°E)
Time: 03:56:29
(UTC+00:00)

SPROUT - Pass Details

Date: 07 July 2022
Orbit: 588 x 598 km, 97.9° (Epoch: 13 August)

Event Time Altitude Azimuth Distance (km) Brightness Sun altitude
Exits shadow 23:48:38 44° 119° (ESE) 827 ? -21.6°
Maximum altitude 23:49:35 55° 72° (ENE) 714 ? -21.6°
Drops below altitude 10° 23:53:40 10° 355° (N) 1,930 ? -21.5°
Sets 23:55:52 0° 351° (N) 2,838 ? -21.4°
